^^

..:: Storico WU ::..




Lo storico viene creato da WUnderground con i dati che la stazione Meteomincio invia al loro server. L' aggiornamento viene fatto ogni 5 minuti circa, tuttavia possono esserci intervalli pił ampi a causa di errori, interruzioni di servizio o problemi nell' invio tramite FTP.


Storico stazione MeteoMincio
Giorno Sommario per Giugno 27, 2022 Unità:  Inglese    Metrico   Entrambi
Giorno Settimana Mese Anno
  Max: Min: Media:
Temperatura: 95 °F 71.6 °F 83.5 °F
Dew Point: 71.6 °F 62.6 °F 66.9 °F
Umidità: 81% 44% 59%
Velocità vento: 13mph 1.2mph 6.6mph
Raffica: 19.9mph - -
Direzione- - East
Pressione: 29.9 in 29.9 in -
Precipitazioni: 0 in    
 
 
Tabulato Dati per Giugno 27, 2022
Ora Temperatura Dew Point Pressione Direzione Velocità vento Raffica Umidità Intensità pioggia (oraria) Info solare Situazione
00:04 78.8 °F 62.6 °F 29.9 in East 5 mph 8.1 mph 60% 0 in 0.00 W/m2 unknown
00:09 78.8 °F 62.6 °F 29.9 in NE 3.7 mph 6.8 mph 61% 0 in 0.00 W/m2 unknown
00:14 77 °F 62.6 °F 29.9 in NE 5.6 mph 8.1 mph 62% 0 in 0.00 W/m2 unknown
00:19 77 °F 62.6 °F 29.9 in NE 5.6 mph 8.1 mph 62% 0 in 0.00 W/m2 unknown
00:24 77 °F 64.4 °F 29.9 in ENE 6.2 mph 8.1 mph 63% 0 in 0.00 W/m2 unknown
00:29 77 °F 62.6 °F 29.9 in ENE 6.2 mph 6.8 mph 63% 0 in 0.00 W/m2 unknown
00:34 77 °F 64.4 °F 29.9 in NE 5 mph 6.8 mph 63% 0 in 0.00 W/m2 unknown
00:39 77 °F 62.6 °F 29.9 in NNE 4.3 mph 8.7 mph 63% 0 in 0.00 W/m2 unknown
00:44 77 °F 62.6 °F 29.9 in ENE 5.6 mph 9.3 mph 63% 0 in 0.00 W/m2 unknown
00:49 77 °F 62.6 °F 29.9 in ENE 6.2 mph 9.3 mph 63% 0 in 0.00 W/m2 unknown
00:54 77 °F 62.6 °F 29.9 in NE 6.2 mph 8.7 mph 63% 0 in 0.00 W/m2 unknown
00:59 77 °F 62.6 °F 29.9 in NE 5 mph 6.8 mph 63% 0 in 0.00 W/m2 unknown
01:04 77 °F 62.6 °F 29.9 in NE 5 mph 6.8 mph 63% 0 in 0.00 W/m2 unknown
01:09 77 °F 62.6 °F 29.9 in NE 5 mph 6.8 mph 63% 0 in 0.00 W/m2 unknown
01:14 77 °F 62.6 °F 29.9 in NE 5.6 mph 8.1 mph 63% 0 in 0.00 W/m2 unknown
01:19 77 °F 62.6 °F 29.9 in NE 5.6 mph 8.1 mph 62% 0 in 0.00 W/m2 unknown
01:23 77 °F 62.6 °F 29.9 in NE 5 mph 8.1 mph 62% 0 in 0.00 W/m2 unknown
01:29 77 °F 62.6 °F 29.9 in ENE 5 mph 8.1 mph 62% 0 in 0.00 W/m2 unknown
01:34 77 °F 62.6 °F 29.9 in ENE 5 mph 8.1 mph 62% 0 in 0.00 W/m2 unknown
01:39 77 °F 62.6 °F 29.9 in ENE 5.6 mph 8.1 mph 62% 0 in 0.00 W/m2 unknown
01:44 77 °F 62.6 °F 29.9 in ENE 6.2 mph 8.1 mph 62% 0 in 0.00 W/m2 unknown
01:49 77 °F 62.6 °F 29.9 in ENE 6.2 mph 8.1 mph 63% 0 in 0.00 W/m2 unknown
01:54 77 °F 62.6 °F 29.9 in ENE 5.6 mph 8.1 mph 63% 0 in 0.00 W/m2 unknown
01:59 75.2 °F 62.6 °F 29.9 in ENE 5 mph 6.8 mph 63% 0 in 0.00 W/m2 unknown
02:04 75.2 °F 62.6 °F 29.9 in ENE 5 mph 6.8 mph 63% 0 in 0.00 W/m2 unknown
02:09 75.2 °F 62.6 °F 29.9 in ENE 5 mph 6.8 mph 63% 0 in 0.00 W/m2 unknown
02:14 75.2 °F 62.6 °F 29.9 in ENE 3.1 mph 5 mph 63% 0 in 0.00 W/m2 unknown
02:19 75.2 °F 62.6 °F 29.9 in ENE 3.1 mph 5 mph 63% 0 in 0.00 W/m2 unknown
02:24 75.2 °F 62.6 °F 29.9 in ENE 3.1 mph 5 mph 63% 0 in 0.00 W/m2 unknown
02:29 75.2 °F 62.6 °F 29.9 in NE 3.7 mph 5 mph 63% 0 in 0.00 W/m2 unknown
02:34 75.2 °F 62.6 °F 29.9 in NE 4.3 mph 6.8 mph 63% 0 in 0.00 W/m2 unknown
02:39 75.2 °F 62.6 °F 29.9 in NE 5 mph 8.1 mph 63% 0 in 0.00 W/m2 unknown
02:44 75.2 °F 62.6 °F 29.9 in NE 5 mph 8.1 mph 63% 0 in 0.00 W/m2 unknown
02:49 75.2 °F 62.6 °F 29.9 in ENE 5 mph 8.1 mph 63% 0 in 0.00 W/m2 unknown
02:54 75.2 °F 62.6 °F 29.9 in ENE 5 mph 6.8 mph 63% 0 in 0.00 W/m2 unknown
02:59 75.2 °F 62.6 °F 29.9 in ENE 5 mph 6.8 mph 64% 0 in 0.00 W/m2 unknown
03:04 75.2 °F 62.6 °F 29.9 in ENE 5 mph 6.8 mph 64% 0 in 0.00 W/m2 unknown
03:09 75.2 °F 62.6 °F 29.9 in ESE 5 mph 6.8 mph 65% 0 in 0.00 W/m2 unknown
03:14 75.2 °F 62.6 °F 29.9 in ENE 3.1 mph 6.8 mph 66% 0 in 0.00 W/m2 unknown
03:19 73.4 °F 62.6 °F 29.9 in ENE 3.7 mph 5 mph 66% 0 in 0.00 W/m2 unknown
03:24 73.4 °F 62.6 °F 29.9 in ENE 3.7 mph 5 mph 67% 0 in 0.00 W/m2 unknown
03:29 73.4 °F 62.6 °F 29.9 in ENE 3.7 mph 5 mph 67% 0 in 0.00 W/m2 unknown
03:34 73.4 °F 62.6 °F 29.9 in ENE 3.7 mph 5 mph 68% 0 in 0.00 W/m2 unknown
03:39 73.4 °F 62.6 °F 29.9 in ENE 3.7 mph 6.8 mph 69% 0 in 0.00 W/m2 unknown
03:44 73.4 °F 62.6 °F 29.9 in ENE 3.1 mph 6.8 mph 69% 0 in 0.00 W/m2 unknown
03:47 73.4 °F 64.4 °F 29.9 in ENE 3.7 mph 6.8 mph 71% 0 in 0.00 W/m2 unknown
03:53 73.4 °F 64.4 °F 29.9 in ENE 3.7 mph 6.8 mph 71% 0 in 0.00 W/m2 unknown
03:57 73.4 °F 64.4 °F 29.9 in ENE 3.7 mph 6.8 mph 71% 0 in 0.00 W/m2 unknown
04:03 73.4 °F 64.4 °F 29.9 in ENE 3.1 mph 6.8 mph 73% 0 in 0.00 W/m2 unknown
04:09 73.4 °F 64.4 °F 29.9 in ENE 4.3 mph 6.8 mph 74% 0 in 0.00 W/m2 unknown
04:13 73.4 °F 64.4 °F 29.9 in ENE 4.3 mph 6.8 mph 74% 0 in 0.00 W/m2 unknown
04:18 73.4 °F 64.4 °F 29.9 in ENE 4.3 mph 6.8 mph 75% 0 in 0.00 W/m2 unknown
04:24 73.4 °F 64.4 °F 29.9 in NE 3.1 mph 6.8 mph 75% 0 in 0.00 W/m2 unknown
04:28 73.4 °F 66.2 °F 29.9 in NE 3.1 mph 4.3 mph 76% 0 in 0.00 W/m2 unknown
04:34 73.4 °F 66.2 °F 29.9 in ENE 2.5 mph 3.7 mph 76% 0 in 0.00 W/m2 unknown
04:38 73.4 °F 66.2 °F 29.9 in NE 3.7 mph 5 mph 76% 0 in 0.00 W/m2 unknown
04:44 73.4 °F 66.2 °F 29.9 in NE 3.7 mph 3.7 mph 76% 0 in 0.00 W/m2 unknown
04:49 73.4 °F 66.2 °F 29.9 in NE 3.1 mph 3.7 mph 76% 0 in 0.00 W/m2 unknown
04:53 73.4 °F 66.2 °F 29.9 in NE 1.2 mph 3.7 mph 77% 0 in 0.00 W/m2 unknown
04:59 73.4 °F 66.2 °F 29.9 in NE 2.5 mph 3.7 mph 77% 0 in 0.00 W/m2 unknown
05:04 73.4 °F 66.2 °F 29.9 in NE 1.9 mph 3.1 mph 77% 0 in 0.00 W/m2 unknown
05:09 73.4 °F 66.2 °F 29.9 in ENE 1.2 mph 2.5 mph 78% 0 in 0.00 W/m2 unknown
05:13 73.4 °F 66.2 °F 29.9 in East 1.2 mph 2.5 mph 78% 0 in 0.00 W/m2 unknown
05:19 73.4 °F 66.2 °F 29.9 in East 1.2 mph 2.5 mph 78% 0 in 0.00 W/m2 unknown
05:22 73.4 °F 66.2 °F 29.9 in East 1.2 mph 2.5 mph 78% 0 in 0.00 W/m2 unknown
05:29 73.4 °F 66.2 °F 29.9 in East 1.2 mph 2.5 mph 79% 0 in 0.00 W/m2 unknown
05:34 73.4 °F 66.2 °F 29.9 in ESE 1.2 mph 2.5 mph 80% 0 in 0.00 W/m2 unknown
05:39 71.6 °F 66.2 °F 29.9 in ESE 1.2 mph 2.5 mph 80% 0 in 0.00 W/m2 unknown
05:44 71.6 °F 66.2 °F 29.9 in ESE 1.2 mph 3.1 mph 81% 0 in 7.00 W/m2 unknown
05:49 73.4 °F 66.2 °F 29.9 in ESE 2.5 mph 5 mph 81% 0 in 9.00 W/m2 unknown
05:54 73.4 °F 66.2 °F 29.9 in ESE 3.7 mph 6.2 mph 80% 0 in 12.00 W/m2 unknown
05:59 73.4 °F 66.2 °F 29.9 in ESE 3.7 mph 6.2 mph 80% 0 in 16.00 W/m2 unknown
06:04 73.4 °F 66.2 °F 29.9 in ESE 4.3 mph 6.2 mph 79% 0 in 19.00 W/m2 unknown
06:09 73.4 °F 66.2 °F 29.9 in ESE 3.1 mph 5 mph 79% 0 in 21.00 W/m2 unknown
06:12 73.4 °F 66.2 °F 29.9 in SE 3.1 mph 5 mph 79% 0 in 25.00 W/m2 unknown
06:17 73.4 °F 66.2 °F 29.9 in South 3.1 mph 3.7 mph 79% 0 in 28.00 W/m2 unknown
06:24 73.4 °F 66.2 °F 29.9 in SE 2.5 mph 3.7 mph 79% 0 in 33.00 W/m2 unknown
06:29 73.4 °F 66.2 °F 29.9 in SSW 1.9 mph 3.7 mph 79% 0 in 44.00 W/m2 unknown
06:34 73.4 °F 66.2 °F 29.9 in SW 2.5 mph 3.7 mph 79% 0 in 49.00 W/m2 unknown
06:38 73.4 °F 66.2 °F 29.9 in SSW 2.5 mph 3.7 mph 79% 0 in 56.00 W/m2 unknown
06:44 73.4 °F 66.2 °F 29.9 in SSW 2.5 mph 3.7 mph 79% 0 in 65.00 W/m2 unknown
06:49 73.4 °F 66.2 °F 29.9 in South 2.5 mph 3.7 mph 79% 0 in 72.00 W/m2 unknown
06:54 73.4 °F 66.2 °F 29.9 in SE 1.9 mph 3.7 mph 79% 0 in 83.00 W/m2 unknown
06:59 73.4 °F 66.2 °F 29.9 in SE 1.9 mph 3.7 mph 79% 0 in 93.00 W/m2 unknown
07:04 73.4 °F 66.2 °F 29.9 in ESE 3.7 mph 5 mph 78% 0 in 105.00 W/m2 unknown
07:09 75.2 °F 68 °F 29.9 in ESE 5 mph 8.1 mph 78% 0 in 114.00 W/m2 unknown
07:14 75.2 °F 68 °F 29.9 in ESE 4.3 mph 8.1 mph 78% 0 in 118.00 W/m2 unknown
07:19 75.2 °F 68 °F 29.9 in East 5 mph 8.1 mph 77% 0 in 128.00 W/m2 unknown
07:24 77 °F 68 °F 29.9 in East 5 mph 11.2 mph 77% 0 in 141.00 W/m2 unknown
07:29 77 °F 68 °F 29.9 in East 6.2 mph 11.8 mph 77% 0 in 155.00 W/m2 unknown
07:34 77 °F 68 °F 29.9 in ENE 6.8 mph 11.8 mph 76% 0 in 167.00 W/m2 unknown
07:39 77 °F 68 °F 29.9 in East 6.2 mph 11.8 mph 76% 0 in 179.00 W/m2 unknown
07:44 77 °F 68 °F 29.9 in East 6.2 mph 11.8 mph 76% 0 in 179.00 W/m2 unknown
07:49 77 °F 69.8 °F 29.9 in East 6.2 mph 8.1 mph 76% 0 in 197.00 W/m2 unknown
07:54 77 °F 69.8 °F 29.9 in East 6.2 mph 10.6 mph 77% 0 in 211.00 W/m2 unknown
07:59 77 °F 69.8 °F 29.9 in East 6.2 mph 13 mph 76% 0 in 225.00 W/m2 unknown
08:03 78.8 °F 69.8 °F 29.9 in ESE 6.2 mph 13 mph 76% 0 in 241.00 W/m2 unknown
08:09 78.8 °F 69.8 °F 29.9 in East 6.2 mph 13 mph 75% 0 in 258.00 W/m2 unknown
08:14 78.8 °F 69.8 °F 29.9 in East 8.7 mph 13 mph 74% 0 in 267.00 W/m2 unknown
08:19 78.8 °F 69.8 °F 29.9 in East 8.7 mph 13 mph 73% 0 in 287.00 W/m2 unknown
08:24 78.8 °F 69.8 °F 29.9 in ENE 8.7 mph 13 mph 72% 0 in 299.00 W/m2 unknown
08:29 78.8 °F 69.8 °F 29.9 in ESE 7.5 mph 11.8 mph 71% 0 in 311.00 W/m2 unknown
08:34 78.8 °F 69.8 °F 29.9 in East 6.8 mph 11.8 mph 71% 0 in 327.00 W/m2 unknown
08:39 80.6 °F 69.8 °F 29.9 in East 6.2 mph 10.6 mph 70% 0 in 346.00 W/m2 unknown
08:44 80.6 °F 68 °F 29.9 in ESE 6.2 mph 10.6 mph 68% 0 in 346.00 W/m2 unknown
08:49 80.6 °F 68 °F 29.9 in East 6.2 mph 14.9 mph 67% 0 in 357.00 W/m2 unknown
08:54 80.6 °F 68 °F 29.9 in East 8.7 mph 14.9 mph 66% 0 in 371.00 W/m2 unknown
08:59 80.6 °F 68 °F 29.9 in East 8.1 mph 14.9 mph 65% 0 in 373.00 W/m2 unknown
09:04 82.4 °F 68 °F 29.9 in East 8.1 mph 14.9 mph 64% 0 in 401.00 W/m2 unknown
09:08 82.4 °F 68 °F 29.9 in ENE 8.1 mph 14.3 mph 64% 0 in 408.00 W/m2 unknown
09:14 82.4 °F 68 °F 29.9 in East 10.6 mph 16.2 mph 63% 0 in 422.00 W/m2 unknown
09:19 82.4 °F 68 °F 29.9 in East 10.6 mph 16.2 mph 61% 0 in 436.00 W/m2 unknown
09:24 82.4 °F 68 °F 29.9 in East 9.9 mph 16.2 mph 60% 0 in 450.00 W/m2 unknown
09:29 82.4 °F 68 °F 29.9 in East 8.7 mph 14.9 mph 60% 0 in 466.00 W/m2 unknown
09:34 82.4 °F 68 °F 29.9 in ENE 8.7 mph 14.3 mph 60% 0 in 475.00 W/m2 unknown
09:39 82.4 °F 68 °F 29.9 in East 10.6 mph 14.3 mph 60% 0 in 483.00 W/m2 unknown
09:44 82.4 °F 68 °F 29.9 in ESE 9.9 mph 14.3 mph 59% 0 in 499.00 W/m2 unknown
09:49 84.2 °F 68 °F 29.9 in ESE 10.6 mph 14.3 mph 59% 0 in 510.00 W/m2 unknown
09:53 84.2 °F 68 °F 29.9 in ESE 9.3 mph 14.3 mph 59% 0 in 519.00 W/m2 unknown
09:59 84.2 °F 68 °F 29.9 in ENE 8.7 mph 14.3 mph 59% 0 in 540.00 W/m2 unknown
10:04 84.2 °F 68 °F 29.9 in East 8.1 mph 14.3 mph 59% 0 in 545.00 W/m2 unknown
10:09 84.2 °F 68 °F 29.9 in ESE 6.8 mph 13 mph 59% 0 in 547.00 W/m2 unknown
10:14 84.2 °F 68 °F 29.9 in East 6.8 mph 13 mph 58% 0 in 563.00 W/m2 unknown
10:19 84.2 °F 68 °F 29.9 in ESE 7.5 mph 16.2 mph 57% 0 in 571.00 W/m2 unknown
10:24 84.2 °F 68 °F 29.9 in East 11.2 mph 16.2 mph 57% 0 in 596.00 W/m2 unknown
10:29 84.2 °F 68 °F 29.9 in East 12.4 mph 16.2 mph 56% 0 in 608.00 W/m2 unknown
10:34 86 °F 68 °F 29.9 in East 11.8 mph 16.2 mph 56% 0 in 649.00 W/m2 unknown
10:39 86 °F 68 °F 29.9 in East 8.7 mph 16.2 mph 57% 0 in 649.00 W/m2 unknown
10:44 86 °F 68 °F 29.9 in ESE 7.5 mph 13 mph 57% 0 in 640.00 W/m2 unknown
10:49 86 °F 68 °F 29.9 in East 9.9 mph 14.9 mph 56% 0 in 642.00 W/m2 unknown
10:54 86 °F 68 °F 29.9 in East 11.2 mph 14.9 mph 57% 0 in 657.00 W/m2 unknown
10:59 86 °F 69.8 °F 29.9 in ESE 9.9 mph 14.9 mph 58% 0 in 670.00 W/m2 unknown
11:04 86 °F 68 °F 29.9 in East 10.6 mph 14.9 mph 56% 0 in 680.00 W/m2 unknown
11:09 86 °F 68 °F 29.9 in ESE 10.6 mph 14.3 mph 56% 0 in 705.00 W/m2 unknown
11:14 86 °F 68 °F 29.9 in ESE 9.9 mph 14.9 mph 56% 0 in 765.00 W/m2 unknown
11:19 86 °F 68 °F 29.9 in East 9.9 mph 14.9 mph 55% 0 in 765.00 W/m2 unknown
11:24 86 °F 69.8 °F 29.9 in East 8.7 mph 14.9 mph 56% 0 in 758.00 W/m2 unknown
11:29 87.8 °F 69.8 °F 29.9 in ESE 8.1 mph 14.9 mph 57% 0 in 728.00 W/m2 unknown
11:34 87.8 °F 69.8 °F 29.9 in East 8.7 mph 13 mph 56% 0 in 773.00 W/m2 unknown
11:39 87.8 °F 69.8 °F 29.9 in ENE 8.7 mph 11.8 mph 56% 0 in 773.00 W/m2 unknown
11:44 87.8 °F 69.8 °F 29.9 in East 8.7 mph 13 mph 56% 0 in 735.00 W/m2 unknown
11:49 87.8 °F 69.8 °F 29.9 in East 9.3 mph 14.3 mph 56% 0 in 752.00 W/m2 unknown
11:54 87.8 °F 69.8 °F 29.9 in East 8.1 mph 14.3 mph 54% 0 in 779.00 W/m2 unknown
11:59 87.8 °F 69.8 °F 29.9 in East 8.7 mph 14.3 mph 54% 0 in 780.00 W/m2 unknown
12:04 89.6 °F 69.8 °F 29.9 in ESE 8.1 mph 13 mph 53% 0 in 772.00 W/m2 unknown
12:09 89.6 °F 69.8 °F 29.9 in ESE 8.7 mph 13 mph 53% 0 in 768.00 W/m2 unknown
12:14 89.6 °F 69.8 °F 29.9 in East 10.6 mph 16.8 mph 52% 0 in 775.00 W/m2 unknown
12:19 89.6 °F 69.8 °F 29.9 in East 10.6 mph 17.4 mph 51% 0 in 765.00 W/m2 unknown
12:24 89.6 °F 69.8 °F 29.9 in ESE 9.9 mph 17.4 mph 51% 0 in 772.00 W/m2 unknown
12:29 89.6 °F 69.8 °F 29.9 in ENE 8.7 mph 16.8 mph 52% 0 in 779.00 W/m2 unknown
12:34 89.6 °F 69.8 °F 29.9 in ENE 8.1 mph 11.8 mph 52% 0 in 773.00 W/m2 unknown
12:39 89.6 °F 69.8 °F 29.9 in East 8.7 mph 13 mph 51% 0 in 782.00 W/m2 unknown
12:44 91.4 °F 68 °F 29.9 in East 8.1 mph 13 mph 49% 0 in 786.00 W/m2 unknown
12:49 91.4 °F 68 °F 29.9 in ENE 9.3 mph 14.3 mph 48% 0 in 812.00 W/m2 unknown
12:54 91.4 °F 68 °F 29.9 in ENE 10.6 mph 14.3 mph 47% 0 in 844.00 W/m2 unknown
12:59 91.4 °F 68 °F 29.9 in ESE 9.9 mph 14.3 mph 47% 0 in 858.00 W/m2 unknown
13:04 91.4 °F 68 °F 29.9 in East 9.3 mph 14.3 mph 47% 0 in 858.00 W/m2 unknown
13:09 91.4 °F 69.8 °F 29.9 in East 8.1 mph 13.7 mph 49% 0 in 858.00 W/m2 unknown
13:13 91.4 °F 69.8 °F 29.9 in East 8.1 mph 14.3 mph 49% 0 in 833.00 W/m2 unknown
13:17 91.4 °F 68 °F 29.9 in ENE 8.7 mph 13 mph 47% 0 in 821.00 W/m2 unknown
13:24 91.4 °F 68 °F 29.9 in ENE 9.9 mph 13 mph 47% 0 in 821.00 W/m2 unknown
13:29 91.4 °F 68 °F 29.9 in ENE 10.6 mph 14.3 mph 46% 0 in 812.00 W/m2 unknown
13:33 91.4 °F 69.8 °F 29.9 in ENE 11.2 mph 14.3 mph 49% 0 in 816.00 W/m2 unknown
13:39 91.4 °F 68 °F 29.9 in ENE 10.6 mph 14.3 mph 46% 0 in 816.00 W/m2 unknown
13:44 91.4 °F 68 °F 29.9 in NE 10.6 mph 14.9 mph 45% 0 in 814.00 W/m2 unknown
13:49 91.4 °F 68 °F 29.9 in ENE 11.2 mph 16.2 mph 46% 0 in 842.00 W/m2 unknown
13:54 91.4 °F 68 °F 29.9 in ENE 9.9 mph 14.9 mph 46% 0 in 842.00 W/m2 unknown
13:59 91.4 °F 68 °F 29.9 in ENE 8.7 mph 13 mph 46% 0 in 884.00 W/m2 unknown
14:04 91.4 °F 68 °F 29.9 in ENE 9.3 mph 13 mph 46% 0 in 881.00 W/m2 unknown
14:09 91.4 °F 68 °F 29.9 in ENE 8.1 mph 13 mph 45% 0 in 867.00 W/m2 unknown
14:14 93.2 °F 68 °F 29.9 in ENE 9.3 mph 13 mph 45% 0 in 805.00 W/m2 unknown
14:19 93.2 °F 68 °F 29.9 in East 9.3 mph 11.8 mph 45% 0 in 795.00 W/m2 unknown
14:24 93.2 °F 69.8 °F 29.9 in East 8.7 mph 11.8 mph 47% 0 in 791.00 W/m2 unknown
14:29 93.2 °F 69.8 °F 29.9 in East 8.1 mph 16.2 mph 47% 0 in 788.00 W/m2 unknown
14:34 93.2 °F 68 °F 29.9 in East 8.7 mph 16.2 mph 45% 0 in 788.00 W/m2 unknown
14:39 93.2 °F 68 °F 29.9 in East 8.1 mph 16.2 mph 44% 0 in 786.00 W/m2 unknown
14:44 93.2 °F 68 °F 29.9 in East 8.1 mph 11.8 mph 44% 0 in 782.00 W/m2 unknown
14:48 93.2 °F 68 °F 29.9 in ESE 9.3 mph 13 mph 45% 0 in 777.00 W/m2 unknown
14:54 93.2 °F 69.8 °F 29.9 in ESE 9.9 mph 13 mph 46% 0 in 773.00 W/m2 unknown
14:59 93.2 °F 69.8 °F 29.9 in East 9.9 mph 13 mph 46% 0 in 773.00 W/m2 unknown
15:04 93.2 °F 69.8 °F 29.9 in East 9.9 mph 13 mph 46% 0 in 763.00 W/m2 unknown
15:09 93.2 °F 68 °F 29.9 in East 8.1 mph 13 mph 45% 0 in 747.00 W/m2 unknown
15:14 95 °F 69.8 °F 29.9 in East 7.5 mph 13 mph 44% 0 in 745.00 W/m2 unknown
15:19 93.2 °F 68 °F 29.9 in East 9.9 mph 13 mph 44% 0 in 737.00 W/m2 unknown
15:24 95 °F 69.8 °F 29.9 in East 9.9 mph 13 mph 45% 0 in 729.00 W/m2 unknown
15:29 93.2 °F 69.8 °F 29.9 in East 8.7 mph 13 mph 45% 0 in 722.00 W/m2 unknown
15:33 93.2 °F 69.8 °F 29.9 in ENE 8.1 mph 19.3 mph 45% 0 in 710.00 W/m2 unknown
15:39 95 °F 69.8 °F 29.9 in ENE 10.6 mph 19.9 mph 45% 0 in 710.00 W/m2 unknown
15:44 95 °F 68 °F 29.9 in ESE 11.2 mph 19.9 mph 44% 0 in 696.00 W/m2 unknown
15:49 95 °F 69.8 °F 29.9 in East 9.9 mph 19.9 mph 44% 0 in 689.00 W/m2 unknown
15:54 93.2 °F 68 °F 29.9 in East 10.6 mph 16.2 mph 44% 0 in 679.00 W/m2 unknown
15:59 93.2 °F 68 °F 29.9 in East 10.6 mph 14.9 mph 44% 0 in 673.00 W/m2 unknown
16:04 93.2 °F 69.8 °F 29.9 in ENE 11.8 mph 14.9 mph 45% 0 in 656.00 W/m2 unknown
16:09 93.2 °F 69.8 °F 29.9 in East 11.2 mph 17.4 mph 45% 0 in 650.00 W/m2 unknown
16:14 95 °F 69.8 °F 29.9 in East 11.8 mph 17.4 mph 44% 0 in 635.00 W/m2 unknown
16:19 93.2 °F 69.8 °F 29.9 in ENE 9.9 mph 17.4 mph 46% 0 in 631.00 W/m2 unknown
16:24 93.2 °F 69.8 °F 29.9 in ENE 10.6 mph 16.2 mph 46% 0 in 619.00 W/m2 unknown
16:29 93.2 °F 69.8 °F 29.9 in East 12.4 mph 16.8 mph 45% 0 in 608.00 W/m2 unknown
16:34 93.2 °F 69.8 °F 29.9 in ENE 12.4 mph 16.8 mph 45% 0 in 585.00 W/m2 unknown
16:39 93.2 °F 69.8 °F 29.9 in ENE 13 mph 19.9 mph 46% 0 in 570.00 W/m2 unknown
16:44 93.2 °F 69.8 °F 29.9 in ENE 13 mph 19.9 mph 47% 0 in 557.00 W/m2 unknown
16:49 93.2 °F 69.8 °F 29.9 in ENE 11.8 mph 16.8 mph 46% 0 in 548.00 W/m2 unknown
16:54 93.2 °F 69.8 °F 29.9 in ENE 9.9 mph 16.2 mph 46% 0 in 538.00 W/m2 unknown
16:59 93.2 °F 69.8 °F 29.9 in ENE 9.3 mph 13 mph 46% 0 in 534.00 W/m2 unknown
17:04 93.2 °F 71.6 °F 29.9 in East 9.3 mph 13 mph 48% 0 in 533.00 W/m2 unknown
17:09 93.2 °F 69.8 °F 29.9 in ENE 9.9 mph 14.3 mph 47% 0 in 522.00 W/m2 unknown
17:14 93.2 °F 69.8 °F 29.9 in ENE 9.9 mph 14.3 mph 47% 0 in 512.00 W/m2 unknown
17:19 93.2 °F 69.8 °F 29.9 in East 9.3 mph 14.3 mph 46% 0 in 506.00 W/m2 unknown
17:24 93.2 °F 69.8 °F 29.9 in NE 9.9 mph 14.3 mph 46% 0 in 490.00 W/m2 unknown
17:29 93.2 °F 69.8 °F 29.9 in ENE 9.9 mph 14.3 mph 46% 0 in 478.00 W/m2 unknown
17:34 93.2 °F 69.8 °F 29.9 in ENE 9.3 mph 14.3 mph 47% 0 in 466.00 W/m2 unknown
17:39 93.2 °F 69.8 °F 29.9 in ENE 8.7 mph 14.3 mph 47% 0 in 457.00 W/m2 unknown
17:44 93.2 °F 69.8 °F 29.9 in East 9.9 mph 16.2 mph 46% 0 in 446.00 W/m2 unknown
17:49 93.2 °F 69.8 °F 29.9 in East 11.2 mph 16.2 mph 47% 0 in 434.00 W/m2 unknown
17:54 93.2 °F 69.8 °F 29.9 in ENE 10.6 mph 16.2 mph 48% 0 in 422.00 W/m2 unknown
17:59 93.2 °F 69.8 °F 29.9 in East 9.9 mph 14.3 mph 47% 0 in 408.00 W/m2 unknown
18:04 93.2 °F 69.8 °F 29.9 in ENE 8.7 mph 14.3 mph 47% 0 in 394.00 W/m2 unknown
18:09 93.2 °F 69.8 °F 29.9 in ENE 11.2 mph 17.4 mph 46% 0 in 380.00 W/m2 unknown
18:14 93.2 °F 68 °F 29.9 in ENE 10.6 mph 17.4 mph 46% 0 in 367.00 W/m2 unknown
18:19 91.4 °F 68 °F 29.9 in ENE 8.7 mph 16.8 mph 46% 0 in 353.00 W/m2 unknown
18:24 91.4 °F 68 °F 29.9 in ENE 8.1 mph 13 mph 47% 0 in 341.00 W/m2 unknown
18:29 91.4 °F 68 °F 29.9 in East 8.1 mph 13 mph 46% 0 in 327.00 W/m2 unknown
18:34 91.4 °F 68 °F 29.9 in ENE 9.3 mph 14.3 mph 46% 0 in 309.00 W/m2 unknown
18:39 91.4 °F 68 °F 29.9 in ENE 9.3 mph 14.3 mph 46% 0 in 297.00 W/m2 unknown
18:44 91.4 °F 68 °F 29.9 in ENE 8.7 mph 14.3 mph 46% 0 in 281.00 W/m2 unknown
18:49 91.4 °F 68 °F 29.9 in East 8.1 mph 14.3 mph 46% 0 in 271.00 W/m2 unknown
18:54 91.4 °F 68 °F 29.9 in East 7.5 mph 11.2 mph 46% 0 in 257.00 W/m2 unknown
18:59 91.4 °F 68 °F 29.9 in East 8.1 mph 11.8 mph 47% 0 in 241.00 W/m2 unknown
19:04 91.4 °F 68 °F 29.9 in ENE 8.7 mph 11.8 mph 46% 0 in 227.00 W/m2 unknown
19:09 91.4 °F 68 °F 29.9 in ENE 8.7 mph 11.8 mph 46% 0 in 216.00 W/m2 unknown
19:14 91.4 °F 66.2 °F 29.9 in East 8.1 mph 11.8 mph 45% 0 in 200.00 W/m2 unknown
19:19 91.4 °F 66.2 °F 29.9 in ENE 8.7 mph 11.8 mph 45% 0 in 188.00 W/m2 unknown
19:24 91.4 °F 66.2 °F 29.9 in East 8.1 mph 11.8 mph 45% 0 in 172.00 W/m2 unknown
19:29 91.4 °F 66.2 °F 29.9 in ENE 8.1 mph 11.8 mph 45% 0 in 160.00 W/m2 unknown
19:34 89.6 °F 66.2 °F 29.9 in ENE 8.1 mph 11.8 mph 45% 0 in 148.00 W/m2 unknown
19:39 89.6 °F 66.2 °F 29.9 in ENE 6.8 mph 11.8 mph 45% 0 in 135.00 W/m2 unknown
19:44 89.6 °F 66.2 °F 29.9 in East 6.8 mph 11.8 mph 46% 0 in 120.00 W/m2 unknown
19:49 89.6 °F 66.2 °F 29.9 in East 6.2 mph 8.1 mph 47% 0 in 107.00 W/m2 unknown
19:54 89.6 °F 66.2 °F 29.9 in East 6.2 mph 8.1 mph 48% 0 in 97.00 W/m2 unknown
19:59 89.6 °F 66.2 °F 29.9 in East 5.6 mph 8.1 mph 48% 0 in 86.00 W/m2 unknown
20:04 87.8 °F 66.2 °F 29.9 in East 5.6 mph 8.1 mph 49% 0 in 76.00 W/m2 unknown
20:09 87.8 °F 66.2 °F 29.9 in East 5 mph 8.1 mph 49% 0 in 65.00 W/m2 unknown
20:14 87.8 °F 66.2 °F 29.9 in East 5 mph 8.1 mph 50% 0 in 56.00 W/m2 unknown
20:19 87.8 °F 66.2 °F 29.9 in East 5 mph 8.1 mph 51% 0 in 44.00 W/m2 unknown
20:24 87.8 °F 66.2 °F 29.9 in ENE 3.1 mph 8.1 mph 51% 0 in 39.00 W/m2 unknown
20:29 87.8 °F 66.2 °F 29.9 in East 3.1 mph 6.2 mph 51% 0 in 33.00 W/m2 unknown
20:34 86 °F 66.2 °F 29.9 in ENE 3.1 mph 6.2 mph 52% 0 in 28.00 W/m2 unknown
20:39 86 °F 66.2 °F 29.9 in ENE 3.7 mph 5 mph 52% 0 in 23.00 W/m2 unknown
20:44 86 °F 66.2 °F 29.9 in ENE 3.7 mph 5 mph 52% 0 in 19.00 W/m2 unknown
20:49 86 °F 66.2 °F 29.9 in ENE 3.7 mph 5 mph 52% 0 in 16.00 W/m2 unknown
20:54 86 °F 66.2 °F 29.9 in ENE 4.3 mph 5 mph 52% 0 in 12.00 W/m2 unknown
20:59 86 °F 66.2 °F 29.9 in ENE 4.3 mph 6.8 mph 52% 0 in 9.00 W/m2 unknown
21:04 86 °F 66.2 °F 29.9 in ENE 5 mph 9.3 mph 53% 0 in 7.00 W/m2 unknown
21:09 84.2 °F 66.2 °F 29.9 in ENE 5.6 mph 9.3 mph 54% 0 in 0.00 W/m2 unknown
21:14 84.2 °F 66.2 °F 29.9 in ENE 6.2 mph 9.3 mph 55% 0 in 0.00 W/m2 unknown
21:19 84.2 °F 66.2 °F 29.9 in ENE 6.2 mph 8.7 mph 55% 0 in 0.00 W/m2 unknown
21:24 84.2 °F 66.2 °F 29.9 in ENE 5 mph 8.1 mph 55% 0 in 0.00 W/m2 unknown
21:29 84.2 °F 66.2 °F 29.9 in East 5 mph 6.8 mph 55% 0 in 0.00 W/m2 unknown
21:34 84.2 °F 66.2 °F 29.9 in ENE 5 mph 6.8 mph 55% 0 in 0.00 W/m2 unknown
21:39 84.2 °F 66.2 °F 29.9 in ENE 3.7 mph 6.8 mph 56% 0 in 0.00 W/m2 unknown
21:44 82.4 °F 66.2 °F 29.9 in East 4.3 mph 6.8 mph 56% 0 in 0.00 W/m2 unknown
21:49 82.4 °F 66.2 °F 29.9 in East 4.3 mph 6.8 mph 56% 0 in 0.00 W/m2 unknown
21:54 82.4 °F 66.2 °F 29.9 in East 5 mph 6.8 mph 56% 0 in 0.00 W/m2 unknown
21:59 82.4 °F 66.2 °F 29.9 in ENE 3.1 mph 6.8 mph 56% 0 in 0.00 W/m2 unknown
22:04 82.4 °F 66.2 °F 29.9 in ENE 3.1 mph 5 mph 57% 0 in 0.00 W/m2 unknown
22:09 82.4 °F 66.2 °F 29.9 in ENE 3.7 mph 5 mph 57% 0 in 0.00 W/m2 unknown
22:14 82.4 °F 66.2 °F 29.9 in ENE 3.7 mph 5 mph 57% 0 in 0.00 W/m2 unknown
22:19 82.4 °F 66.2 °F 29.9 in ENE 3.7 mph 5 mph 58% 0 in 0.00 W/m2 unknown
22:24 82.4 °F 66.2 °F 29.9 in East 3.7 mph 5 mph 58% 0 in 0.00 W/m2 unknown
22:29 82.4 °F 66.2 °F 29.9 in East 3.1 mph 5 mph 58% 0 in 0.00 W/m2 unknown
22:34 82.4 °F 66.2 °F 29.9 in ENE 3.7 mph 6.2 mph 59% 0 in 0.00 W/m2 unknown
22:39 80.6 °F 66.2 °F 29.9 in ENE 4.3 mph 6.8 mph 59% 0 in 0.00 W/m2 unknown
22:44 80.6 °F 66.2 °F 29.9 in ENE 4.3 mph 6.8 mph 59% 0 in 0.00 W/m2 unknown
22:49 80.6 °F 64.4 °F 29.9 in East 5 mph 6.8 mph 59% 0 in 0.00 W/m2 unknown
22:54 80.6 °F 64.4 °F 29.9 in East 5 mph 6.8 mph 59% 0 in 0.00 W/m2 unknown
22:59 80.6 °F 64.4 °F 29.9 in ENE 5 mph 6.8 mph 59% 0 in 0.00 W/m2 unknown
23:04 80.6 °F 64.4 °F 29.9 in ENE 5 mph 6.2 mph 59% 0 in 0.00 W/m2 unknown
23:09 80.6 °F 64.4 °F 29.9 in ENE 3.7 mph 5 mph 59% 0 in 0.00 W/m2 unknown
23:14 80.6 °F 64.4 °F 29.9 in ENE 3.7 mph 6.8 mph 59% 0 in 0.00 W/m2 unknown
23:19 80.6 °F 64.4 °F 29.9 in ENE 5 mph 6.8 mph 59% 0 in 0.00 W/m2 unknown
23:23 80.6 °F 64.4 °F 29.9 in ENE 5 mph 6.8 mph 60% 0 in 0.00 W/m2 unknown
23:29 80.6 °F 64.4 °F 29.9 in ENE 5 mph 6.8 mph 60% 0 in 0.00 W/m2 unknown
23:34 80.6 °F 64.4 °F 29.9 in ENE 5 mph 6.8 mph 60% 0 in 0.00 W/m2 unknown
23:39 80.6 °F 64.4 °F 29.9 in East 5 mph 6.8 mph 60% 0 in 0.00 W/m2 unknown
23:44 80.6 °F 64.4 °F 29.9 in East 3.1 mph 5 mph 60% 0 in 0.00 W/m2 unknown
23:49 78.8 °F 64.4 °F 29.9 in East 1.9 mph 3.7 mph 62% 0 in 0.00 W/m2 unknown
23:54 78.8 °F 66.2 °F 29.9 in ESE 1.9 mph 3.7 mph 63% 0 in 0.00 W/m2 unknown
23:59 78.8 °F 66.2 °F 29.9 in SSE 1.2 mph 3.7 mph 64% 0 in 0.00 W/m2 unknown
Stazione Meteorologica MeteoMincio Rivalta s/M (MN)
Con i complimenti di Weather Underground - 2 mb



METEO PILLOLE
I venti più violenti (escluso i tornado)
Mount Washington - New Hampshire
Il 12 aprile 1934 furono misurate raffiche a oltre 372 Km/h.
Share

Non seguire questo link o sarai bannato dal sito!